ECMWFNIL_700_spd_132.txt.gz
Wind_Speed
23 21 21 20 21 22 19 19 19 18 18 19 20 19 18 18 18 17 17 18 18 19 19 19 19 19 18 17 17 17 17 17 17 17 17 17 17 16 15 15 15 16
23 22 22 21 22 23 21 20 19 18 19 20 21 20 18 19 18 17 17 17 18 18 19 19 19 19 19 18 18 18 18 18 17 17 18 18 17 17 16 15 15 16
24 23 23 22 22 23 21 20 19 19 20 21 21 20 19 19 18 17 17 18 18 18 18 18 19 20 19 19 19 19 19 18 17 18 18 18 18 17 17 16 16 17
24 24 23 22 23 24 23 21 20 20 21 21 22 20 19 19 18 18 18 18 19 19 18 18 19 20 20 19 19 20 19 18 17 18 18 18 18 18 17 17 17 18
26 25 23 22 25 26 24 23 21 21 21 22 22 20 19 19 19 19 19 19 19 19 18 18 19 20 20 20 20 20 19 18 18 18 18 19 19 19 18 18 18 18
28 27 25 24 26 27 26 23 21 22 22 23 22 21 20 19 20 20 20 20 20 20 19 19 19 20 20 21 21 21 20 19 19 19 19 19 19 19 19 18 18 18
29 28 26 25 28 28 27 24 23 23 23 23 23 21 21 20 21 21 21 21 21 21 20 19 20 21 21 21 21 21 21 21 20 20 20 20 20 20 19 19 19 19
29 28 27 27 29 29 28 25 24 25 25 24 23 22 21 21 21 22 22 22 22 22 21 21 21 21 21 21 21 21 21 22 22 21 21 21 21 21 20 20 19 19
29 29 28 29 30 30 29 26 25 26 25 25 23 22 22 22 22 23 23 22 22 23 23 22 21 21 21 21 21 21 22 22 22 22 22 22 22 21 21 21 20 20
30 30 29 31 31 31 30 27 26 26 26 25 24 23 23 23 23 23 23 23 23 23 23 23 22 22 21 21 22 22 22 22 23 23 23 23 22 22 22 21 21 21
32 31 31 33 32 32 32 28 26 26 26 25 24 23 23 23 23 23 23 23 23 23 23 24 23 22 22 22 22 22 22 22 22 23 22 22 22 22 22 22 22 22
33 32 33 34 32 33 33 29 26 26 25 25 24 24 24 24 24 24 24 24 23 24 24 24 24 23 22 22 22 22 22 21 21 21 21 22 22 22 23 23 23 23
34 33 34 34 33 34 34 30 27 26 25 25 25 24 25 25 25 24 24 24 24 24 25 25 25 24 23 22 21 21 20 20 20 21 21 22 22 23 23 23 23 24
33 33 34 34 34 36 35 32 28 26 26 26 26 25 26 26 25 25 25 25 25 25 25 25 25 24 22 22 21 20 19 19 20 21 21 22 22 23 23 24 25 25
33 34 35 34 35 37 37 34 30 28 27 27 26 26 27 27 26 26 25 25 26 26 26 25 24 23 22 22 21 20 19 20 20 21 21 22 22 23 24 25 26 26
34 35 35 34 35 37 37 35 31 29 28 27 27 27 27 28 27 26 26 26 26 26 25 25 24 24 23 22 21 20 20 21 21 21 21 21 22 23 24 25 27 27
35 36 35 34 35 37 37 35 31 30 29 27 28 28 28 29 29 27 26 26 26 26 25 25 25 24 24 23 22 21 21 21 21 21 21 21 22 23 25 27 28 28
36 37 35 34 35 36 36 34 31 30 29 28 28 29 29 30 29 28 26 26 27 27 26 26 26 25 25 24 23 23 22 22 22 21 21 22 23 25 26 27 28 27
36 37 36 35 35 36 36 34 32 31 30 28 28 29 30 30 29 29 27 27 27 27 26 26 26 27 27 25 25 24 24 23 23 22 22 23 24 26 25 26 26 26
37 38 37 36 36 37 36 34 32 31 30 29 28 29 31 31 30 29 28 27 28 28 27 27 27 28 27 27 26 24 24 24 23 23 23 23 24 25 25 26 26 26
37 38 38 38 38 38 36 35 33 32 32 31 29 29 31 32 31 30 29 28 28 28 28 28 28 28 28 28 27 25 23 23 23 22 23 23 24 25 26 26 26 25
36 37 38 38 38 38 36 35 34 32 32 32 30 30 32 33 32 31 30 28 28 28 28 28 28 29 29 29 27 25 24 24 23 23 23 23 24 25 26 25 24 23
35 36 37 37 37 37 36 36 35 33 32 32 32 32 32 33 33 32 30 28 28 29 29 28 28 29 30 29 28 26 26 26 25 24 23 24 24 25 25 24 23 23
34 35 36 37 37 37 37 37 36 35 34 33 33 33 33 33 33 31 29 28 29 30 29 28 28 29 30 29 28 27 27 27 26 24 23 24 24 24 24 24 24 24
34 35 36 37 37 37 37 36 35 36 35 34 34 33 32 31 30 28 28 29 30 31 30 29 29 29 29 29 28 28 28 27 25 23 23 23 23 24 24 24 25 25
33 34 35 36 37 37 36 35 34 35 35 34 34 32 31 31 29 27 28 29 31 32 32 31 30 29 29 29 29 29 29 26 24 22 22 23 23 24 24 23 23 24

ECMWFNIL_700_spd_135.txt.gz
Wind_Speed
23 20 18 17 16 14 15 18 21 22 22 21 19 18 19 21 23 23 22 22 21 20 20 20 20 21 21 21 20 19 18 18 18 18 18 17 17 17 17 18 18 18
25 22 20 18 17 16 15 18 21 23 23 21 20 19 20 22 22 22 22 22 21 20 19 19 20 20 21 21 20 20 20 19 19 19 19 18 17 17 18 19 19 19
27 25 21 19 19 17 16 19 22 24 24 23 21 20 20 21 22 22 22 22 20 19 19 19 19 20 20 20 20 20 20 20 19 19 19 18 17 18 18 19 20 19
29 26 21 20 20 18 17 19 22 25 25 24 21 20 20 21 21 21 21 21 20 19 18 19 19 19 19 20 20 21 20 20 20 20 20 19 18 18 19 20 20 20
31 28 23 22 23 21 18 19 22 25 26 24 22 21 21 21 20 20 21 21 21 20 19 20 20 19 19 19 20 21 21 20 21 21 21 20 19 19 19 20 20 21
33 30 27 24 24 23 20 19 22 25 26 24 23 22 21 21 20 20 21 21 21 21 21 21 20 19 19 20 21 22 22 21 21 22 21 20 20 20 20 20 21 22
34 33 30 26 26 25 22 21 23 26 27 26 24 23 22 21 21 20 20 21 22 22 22 21 21 20 20 20 21 22 22 22 22 22 22 21 20 20 21 21 22 23
35 34 32 28 27 27 24 22 24 27 29 28 25 24 23 22 21 20 21 22 23 23 23 22 21 21 21 21 21 22 22 22 22 22 22 22 22 22 23 23 24 24
36 35 34 31 29 28 26 23 24 28 30 29 26 25 24 23 22 21 22 23 23 24 24 23 22 22 22 22 22 22 22 22 22 23 23 24 24 24 24 25 25 25
37 36 34 32 31 30 27 25 26 29 31 30 27 25 25 24 23 23 23 23 24 24 24 23 22 22 23 23 23 23 23 23 23 23 24 25 25 26 26 26 26 26
37 37 35 34 33 31 28 27 28 30 32 31 28 26 25 24 24 24 24 24 24 24 24 23 23 23 24 24 24 23 23 23 23 24 24 25 25 26 26 26 27 26
36 37 35 34 34 32 30 29 29 31 33 32 29 26 25 24 25 25 24 24 24 24 24 24 24 24 24 25 25 24 24 23 23 24 24 25 25 25 26 26 26 26
34 35 35 34 34 33 31 30 31 33 34 33 29 26 25 24 25 25 25 25 25 25 25 24 24 24 24 25 25 25 24 24 24 24 24 24 25 25 25 25 25 26
32 34 34 34 34 34 31 31 32 34 35 33 29 26 24 24 25 26 25 26 26 25 26 25 25 25 24 25 25 25 25 25 24 25 25 25 24 24 24 24 24 25
32 33 34 34 35 34 32 32 33 35 35 33 30 27 25 24 26 27 26 27 27 26 26 25 25 25 24 25 26 26 26 25 25 25 25 24 24 23 23 23 24 24
31 32 33 34 35 34 32 32 34 35 35 33 30 28 26 25 26 27 27 28 28 27 27 26 25 25 25 26 26 26 26 26 26 25 24 24 23 23 23 23 23 23
30 30 33 35 35 34 32 33 34 35 36 34 32 29 27 26 27 27 28 29 29 28 27 26 26 26 26 26 26 26 26 26 25 25 25 24 23 23 23 23 23 23
29 30 33 35 34 33 31 32 34 36 36 35 33 30 28 27 27 28 28 29 30 29 28 27 27 27 26 26 26 26 27 26 26 25 25 24 24 24 24 23 23 23
30 30 33 34 33 32 31 31 34 36 36 35 33 31 29 28 28 28 29 30 31 30 29 27 27 27 27 27 27 27 27 27 27 26 25 25 25 25 25 25 24 25
30 30 32 33 32 31 31 32 34 35 35 34 33 31 30 29 27 28 29 30 31 30 29 28 28 29 29 28 28 28 28 28 28 27 26 26 26 27 27 26 26 26
29 30 32 32 31 30 31 32 33 34 34 34 33 32 30 28 28 29 30 30 30 31 30 29 29 30 30 29 28 28 29 29 29 28 27 27 27 28 28 28 28 28
28 29 30 30 29 29 30 32 33 34 34 34 34 32 31 29 28 29 30 30 30 31 31 31 30 31 31 30 29 29 29 29 29 29 28 28 28 28 28 28 28 28
27 28 28 28 27 28 30 31 33 34 34 34 34 33 31 30 29 29 30 31 31 32 32 31 31 30 31 31 31 30 30 30 30 30 30 29 28 28 28 28 28 28
25 25 25 25 26 28 29 30 31 33 33 33 33 32 30 28 28 30 31 31 31 32 32 31 30 30 31 32 32 32 31 31 31 32 31 30 30 29 29 28 28 27
25 24 24 24 26 28 29 30 30 31 32 32 32 32 30 28 29 31 32 31 31 32 33 33 32 31 32 33 34 33 32 32 33 33 32 32 31 30 29 28 27 26
24 24 25 26 27 28 28 29 30 31 32 32 32 32 32 31 31 32 32 31 31 32 33 33 33 32 33 34 34 34 33 32 33 34 33 32 31 30 29 29 28 27

ECMWFNIL_700_spd_138.txt.gz
Wind_Speed
26 27 26 23 22 22 22 20 19 19 20 22 22 22 21 21 21 21 22 22 22 22 22 21 21 21 21 20 20 20 20 19 19 18 18 19 19 18 18 18 18 18
29 29 28 25 23 23 22 21 19 19 21 23 24 24 24 23 22 22 22 22 22 21 22 21 21 21 21 20 20 20 20 19 19 18 18 19 20 20 19 19 19 19
32 32 31 27 25 24 22 21 20 20 21 24 26 26 25 24 23 22 22 22 22 21 21 21 21 21 21 20 20 20 20 19 18 19 20 21 21 21 21 20 20 20
34 34 33 28 27 26 23 23 22 21 21 25 27 27 27 25 23 22 22 22 21 21 21 21 21 21 21 20 20 20 20 19 18 19 20 21 21 22 21 20 20 21
34 36 35 30 28 27 25 24 24 22 22 25 27 28 27 25 23 23 22 21 21 20 21 21 21 21 21 20 20 20 20 19 18 18 20 21 22 22 21 21 21 21
35 36 37 33 30 29 27 26 26 24 24 25 28 29 28 26 24 23 22 22 21 20 21 21 22 21 21 20 20 20 19 18 18 19 20 21 22 22 22 22 22 22
34 36 37 35 33 32 29 28 27 27 25 25 28 29 29 27 25 24 23 22 21 21 21 22 21 21 21 21 20 20 19 19 18 19 21 22 22 22 23 23 22 23
35 36 37 36 35 34 32 30 29 29 27 26 27 29 30 29 26 25 24 23 22 21 22 22 21 21 21 21 20 20 20 19 19 20 21 22 23 23 23 24 24 24
37 36 36 36 37 36 34 32 31 30 29 28 28 29 31 30 28 27 25 24 22 22 23 22 22 21 21 21 20 20 20 20 20 20 21 22 23 24 24 25 25 25
38 37 35 35 36 36 35 34 33 32 31 30 29 29 30 31 30 28 26 25 23 23 23 23 22 21 21 21 21 21 21 21 21 21 21 22 23 24 24 25 26 26
40 39 36 35 35 35 36 35 34 34 33 32 30 29 30 31 31 30 28 26 24 23 24 23 23 22 22 22 22 21 21 21 22 22 22 23 23 24 25 25 26 27
41 41 37 35 35 35 35 36 36 35 34 33 32 30 30 32 32 31 29 26 24 24 24 24 24 24 23 23 22 22 22 22 22 23 23 24 24 24 25 26 27 27
40 41 38 36 36 35 36 37 36 36 35 35 33 31 31 32 33 32 29 26 25 25 25 25 25 25 25 24 23 23 22 22 23 24 24 25 25 25 25 26 26 27
40 42 40 37 35 36 36 36 36 36 36 36 35 33 32 33 34 33 30 27 26 25 26 26 26 26 26 24 23 23 23 23 23 24 25 25 25 25 25 25 26 26
42 44 42 37 35 36 35 34 35 36 36 37 36 34 33 33 34 34 31 29 27 26 26 27 27 27 26 24 23 23 23 24 24 25 26 26 26 26 25 25 26 26
45 44 41 37 34 34 34 34 34 36 37 38 38 35 33 33 35 35 33 30 28 27 26 27 27 27 25 24 24 24 24 25 25 26 26 26 26 26 25 25 26 25
44 41 38 35 33 33 34 34 35 36 38 39 38 36 34 34 35 36 34 32 29 28 26 26 27 27 25 25 25 25 25 25 26 26 26 26 26 26 26 25 26 26
40 37 35 33 32 33 34 35 36 37 38 40 38 35 34 34 36 37 36 33 30 29 27 27 28 27 26 26 27 26 26 26 26 27 27 27 27 27 26 26 26 26
38 35 32 30 30 33 35 36 37 37 38 40 38 35 34 35 36 38 36 34 32 29 27 28 28 27 27 28 28 27 27 27 27 27 27 28 28 27 26 26 26 26
38 34 31 29 31 34 36 37 37 37 38 39 37 35 34 35 37 38 36 34 32 30 29 29 28 27 28 28 28 28 28 28 28 28 28 29 28 28 27 27 26 26
38 34 31 31 33 35 37 37 36 37 39 39 36 34 34 36 38 38 36 35 34 31 30 29 28 27 29 29 28 29 29 29 29 29 29 30 29 28 28 28 27 27
38 35 33 34 35 36 37 36 36 38 39 37 35 34 35 36 37 37 35 35 34 33 32 30 28 28 30 30 29 29 30 31 30 30 30 30 29 29 29 29 28 27
38 36 35 36 36 35 36 36 37 38 36 34 34 35 35 36 36 35 35 35 35 34 33 31 29 29 30 30 30 30 32 32 32 31 31 30 30 30 30 30 30 28
39 38 37 37 35 34 34 35 35 35 33 33 34 34 34 35 35 35 35 36 36 35 34 32 31 30 30 30 30 31 33 33 33 32 32 31 31 31 31 30 30 30
38 38 38 36 33 32 32 32 31 31 32 32 33 33 34 34 35 36 36 36 36 35 34 34 33 32 31 31 32 33 33 34 34 33 33 32 31 32 31 31 31 31
39 38 36 34 31 31 30 30 30 31 32 33 33 33 34 35 36 37 37 37 36 35 35 35 35 34 33 34 34 34 34 34 35 34 33 33 32 31 31 31 32 32

ECMWFNIL_700_spd_141.txt.gz
Wind_Speed
40 38 34 31 30 30 29 27 26 25 22 19 17 16 17 19 21 22 23 23 22 20 20 20 19 18 18 19 17 14 13 16 17 17 17 17 17 17 17 19 19 19
40 38 36 32 31 30 29 28 27 25 23 20 19 17 18 20 21 23 24 24 22 20 21 20 18 17 18 17 16 15 16 17 17 17 17 16 17 18 18 19 20 19
40 39 37 34 32 31 30 28 27 26 24 23 20 19 19 21 22 23 25 25 23 21 21 20 17 16 17 17 16 16 17 17 17 18 18 16 17 18 18 18 19 20
39 38 37 36 34 33 31 30 28 26 25 24 22 21 21 21 22 23 25 25 23 22 21 19 17 17 18 17 17 17 17 18 18 19 19 17 17 18 19 19 19 20
34 35 37 39 38 35 34 32 29 28 26 25 25 24 23 23 22 22 24 24 23 22 21 20 18 19 18 17 18 18 18 18 19 19 19 18 18 18 19 20 20 21
34 39 41 41 40 38 37 34 30 29 28 26 27 27 26 24 22 22 23 24 24 24 22 20 19 19 19 19 19 18 18 19 19 19 19 18 18 18 19 21 21 21
36 41 44 43 42 41 40 38 33 31 29 27 28 29 28 26 24 21 23 25 25 25 23 21 20 20 19 20 19 18 19 19 19 18 18 18 19 18 19 21 21 22
33 36 39 41 42 42 42 40 37 33 31 29 29 30 29 27 25 22 22 25 26 26 25 23 21 21 21 21 19 19 19 19 18 18 17 18 19 19 19 20 21 22
32 32 34 37 39 41 41 40 39 36 33 30 29 30 30 28 26 24 24 25 26 27 27 25 23 22 22 21 20 20 20 20 18 18 18 18 19 19 19 20 21 21
35 32 32 33 34 37 39 39 40 38 35 33 31 30 31 29 27 26 26 25 26 27 27 27 25 23 22 22 21 21 21 20 18 18 19 19 19 19 19 20 20 20
36 33 31 31 31 34 36 38 39 37 36 35 33 32 32 31 29 28 28 27 26 27 28 29 27 24 23 22 22 23 22 21 19 19 19 20 19 20 20 20 20 20
35 33 32 30 31 32 33 35 35 35 35 35 35 34 33 32 31 30 31 28 27 27 29 30 29 26 24 23 23 24 23 21 19 19 20 20 20 21 21 21 20 20
35 33 33 32 33 33 31 31 32 32 32 34 35 36 35 34 32 32 32 30 28 28 29 30 30 28 26 25 24 25 24 21 20 20 20 21 21 21 22 21 21 22
36 34 34 34 35 36 34 32 32 31 31 32 34 35 36 36 35 33 33 31 29 29 30 31 31 30 28 26 25 25 23 21 21 21 21 21 21 21 22 22 23 23
38 36 37 37 36 38 38 36 34 32 32 33 33 33 35 37 36 35 34 33 31 30 31 32 33 31 29 27 25 25 23 21 22 22 22 22 21 22 23 23 24 24
44 40 39 39 37 39 40 39 37 35 34 34 33 33 35 36 37 37 36 34 32 32 32 33 33 33 30 28 25 24 23 23 24 24 23 22 22 22 23 24 24 25
50 45 42 40 38 40 41 40 40 38 35 34 34 34 35 36 38 39 37 35 34 33 33 33 33 33 31 29 26 24 24 25 25 24 24 24 23 23 24 24 25 26
52 47 44 43 40 40 41 41 42 40 36 35 35 35 35 37 39 40 38 36 35 35 34 34 34 34 32 29 27 26 26 26 25 25 25 25 24 23 24 25 25 27
52 48 47 45 42 41 41 42 43 41 37 36 35 35 36 38 40 41 39 37 36 36 35 34 34 34 32 30 29 28 27 27 26 25 25 26 25 25 25 26 26 27
52 49 48 46 43 42 42 43 43 40 37 37 37 37 38 39 41 42 40 38 37 36 35 35 34 33 32 32 31 30 28 27 27 26 26 26 26 26 26 27 27 27
53 51 49 47 44 43 43 43 41 39 38 38 38 39 40 41 42 42 40 39 38 36 36 36 34 33 33 33 33 31 29 28 28 28 27 26 27 27 27 27 28 28
54 52 51 49 45 43 44 42 39 38 37 37 38 39 40 41 43 42 39 39 38 37 37 36 34 34 34 35 35 33 31 29 29 30 28 27 27 28 28 28 29 28
55 54 53 49 46 45 43 40 39 38 37 36 37 37 38 40 42 40 39 38 38 37 37 37 35 35 35 36 36 35 33 31 31 31 30 27 27 27 29 29 29 29
54 55 54 50 47 45 42 39 40 39 36 35 36 37 38 39 40 39 38 38 38 38 38 37 36 35 36 37 38 37 36 34 33 32 31 29 27 28 29 30 30 30
52 53 53 50 47 44 40 39 40 39 37 36 37 37 38 38 38 39 39 39 40 39 38 38 37 36 37 38 39 39 38 35 34 34 32 30 29 29 29 30 31 31
49 50 50 49 46 42 39 38 39 38 37 38 37 37 37 38 38 39 40 41 41 40 38 39 38 37 37 39 40 40 39 38 37 36 33 32 31 30 30 31 32 32

ECMWFNIL_700_spd_144.txt.gz
Wind_Speed
39 38 36 36 36 31 25 25 26 26 26 25 22 19 17 15 14 15 16 16 16 16 17 17 17 16 16 15 14 13 12 11 11 12 14 14 15 15 14 14 15 16
43 41 38 36 36 30 28 29 28 27 27 26 24 21 19 17 15 16 17 17 17 16 16 17 17 16 17 16 14 14 13 11 11 12 13 14 15 14 13 14 15 17
44 44 40 37 35 32 31 31 30 28 27 26 25 23 21 19 17 17 18 18 17 16 16 17 17 17 17 17 15 14 14 13 13 13 13 13 13 13 13 14 16 17
40 42 41 39 38 36 34 32 32 31 28 27 25 23 23 21 18 19 19 19 17 16 16 16 16 17 17 17 16 15 15 15 15 14 14 13 12 12 13 14 16 17
38 40 43 44 43 41 36 32 34 33 30 28 26 24 24 22 20 21 21 20 18 16 16 16 16 17 18 19 18 16 16 16 16 16 14 13 13 13 14 15 16 17
40 42 46 46 45 43 39 34 35 36 34 31 28 26 25 23 21 22 23 21 19 17 16 16 16 17 18 20 19 18 17 17 18 17 14 13 14 15 15 15 16 18
39 42 46 47 44 42 38 36 37 38 35 33 31 28 25 24 23 23 24 22 21 19 17 16 17 18 19 19 19 19 19 18 18 17 15 14 15 16 16 16 17 18
36 40 46 50 47 40 37 37 38 38 35 34 34 31 27 25 24 24 24 23 22 21 19 17 17 18 19 19 19 21 20 18 17 17 16 16 16 16 17 16 17 18
38 39 44 49 45 37 35 36 38 37 36 36 35 34 31 27 26 26 25 24 23 23 22 19 17 18 20 20 20 20 20 19 18 17 17 17 16 17 18 18 17 17
42 40 42 43 38 33 33 35 37 38 39 39 38 37 34 30 29 29 27 25 24 24 23 21 19 19 21 21 21 20 20 20 19 18 18 18 18 18 18 19 17 17
44 42 44 42 35 31 33 34 37 40 42 42 40 39 37 33 33 33 30 27 26 25 25 22 20 20 21 22 22 21 20 21 21 19 18 18 19 19 19 19 18 17
43 44 47 45 35 32 34 35 35 37 38 38 38 38 37 36 36 35 32 30 28 27 26 24 22 22 22 23 23 22 21 21 22 21 19 18 19 19 19 19 19 18
42 43 46 45 38 36 38 37 35 34 33 33 33 34 35 36 36 36 34 31 30 30 29 26 25 24 23 24 24 23 22 22 23 23 20 19 20 20 19 19 19 19
42 42 44 45 43 41 40 38 35 32 30 29 28 29 32 33 33 34 33 32 31 31 32 30 27 26 25 25 25 24 22 22 23 23 22 20 21 21 20 21 20 20
43 45 46 48 48 44 39 37 35 32 29 28 26 26 27 28 30 31 31 31 31 32 34 33 30 28 26 26 25 24 23 22 23 23 23 22 22 21 21 22 21 20
45 47 49 51 52 48 41 37 35 33 31 29 27 26 25 26 27 28 29 29 30 32 34 35 33 30 28 26 26 25 24 23 23 24 24 24 23 22 23 23 22 21
47 47 50 52 54 52 46 40 37 36 33 31 30 27 26 27 27 27 27 28 30 32 34 36 35 32 29 27 27 27 25 24 24 24 25 25 24 23 24 23 23 22
50 49 50 53 55 54 51 44 39 37 35 34 33 30 28 29 29 28 28 28 30 32 34 36 36 34 31 29 29 28 27 25 25 25 26 27 26 25 24 24 24 23
51 53 52 52 54 55 54 50 45 41 39 37 35 33 31 31 31 30 29 29 30 31 33 35 37 35 33 31 30 29 28 27 26 26 28 28 27 26 25 24 24 24
52 55 56 55 53 53 54 55 52 48 45 41 38 35 33 33 33 32 31 31 31 32 33 35 37 36 34 32 31 30 29 28 27 27 29 30 28 27 26 25 25 25
52 56 58 56 51 48 51 55 57 54 49 45 41 37 35 34 34 34 34 33 32 33 34 36 37 37 35 34 32 31 30 30 29 30 31 31 30 29 27 26 25 26
50 54 58 54 46 43 48 53 57 57 52 48 43 38 36 36 35 36 36 34 33 35 35 37 38 38 36 35 33 32 31 31 32 33 33 32 32 31 29 27 25 26
48 51 56 55 46 42 45 49 53 54 53 51 46 40 38 38 37 37 36 34 35 36 37 38 39 38 37 36 34 33 33 33 34 35 34 33 33 32 31 29 26 26
45 46 51 55 54 50 46 46 49 52 53 53 49 43 40 39 37 37 35 35 36 37 37 38 39 38 38 37 35 34 34 34 35 36 35 34 35 34 33 31 28 26
46 46 47 52 58 57 50 46 48 51 52 52 49 45 42 39 38 37 35 35 36 36 37 38 37 37 39 39 37 36 35 36 37 38 36 36 36 36 35 34 31 28
50 49 49 51 55 58 53 49 50 51 51 51 48 45 42 40 38 37 36 35 36 36 37 37 36 36 39 39 37 37 37 37 39 38 37 36 37 37 37 36 34 31

ECMWFNIL_700_spd_150.txt.gz
Wind_Speed
42 43 40 37 35 33 30 27 25 24 22 19 17 15 13 12 12 14 16 16 17 17 15 13 11 10 11 12 12 12 12 12 12 12 12 12 13 14 15 15 16 16
42 44 42 40 38 35 33 31 29 27 25 21 19 17 15 13 13 14 16 18 18 18 17 15 12 10 11 12 13 12 12 12 12 12 12 12 13 13 13 14 15 16
41 44 44 44 42 39 36 35 33 31 27 24 21 18 16 15 14 15 17 19 20 20 20 17 14 12 11 12 14 14 12 12 13 13 12 12 12 13 13 14 15 16
40 42 44 46 45 42 40 38 40 38 32 27 23 20 20 19 17 16 17 19 21 22 22 20 16 14 13 13 15 15 14 13 13 14 13 12 12 12 13 14 15 15
38 41 44 47 47 46 44 41 41 43 38 30 25 24 25 23 20 17 17 18 21 23 23 22 19 17 15 14 15 16 15 14 14 15 14 13 12 12 14 15 15 15
35 38 43 46 48 48 48 45 42 45 44 36 30 29 28 26 23 18 17 19 20 23 24 24 23 20 18 16 16 17 17 16 15 16 15 14 13 13 14 15 14 14
34 35 38 41 45 48 51 50 46 48 51 44 36 34 30 28 25 20 18 20 20 21 24 25 25 24 21 19 18 18 18 17 16 16 16 14 14 14 14 15 14 14
33 33 34 36 40 44 49 50 45 46 52 51 41 37 33 29 27 23 20 21 21 22 23 26 27 26 24 22 21 21 20 19 18 17 16 15 15 15 14 15 15 15
32 32 33 35 38 41 46 50 44 40 48 53 46 40 37 33 30 27 23 21 22 23 24 26 28 28 27 23 22 23 23 22 20 18 17 17 17 16 15 16 16 15
33 32 33 34 38 40 44 49 47 42 45 50 47 42 39 36 34 31 28 25 24 25 26 28 29 29 29 25 23 23 24 24 22 20 19 19 18 17 17 17 16 16
36 34 33 34 37 40 43 48 49 45 42 44 46 44 40 38 36 34 32 30 28 27 28 29 30 31 30 28 26 25 25 25 24 22 21 21 20 19 19 18 17 16
37 36 36 35 35 39 43 47 51 48 41 39 43 44 41 38 37 35 34 32 30 29 28 29 31 33 32 31 30 29 28 27 26 24 23 23 22 21 20 20 18 17
37 37 38 36 35 37 41 46 49 46 40 38 42 45 44 41 38 36 35 33 30 29 28 29 32 34 34 33 32 32 32 31 29 26 24 24 24 23 22 21 20 18
37 37 38 38 37 38 41 44 44 42 40 41 43 45 45 43 40 38 37 34 32 30 29 29 32 35 35 34 34 35 35 34 32 29 27 25 25 24 23 22 21 20
39 38 38 39 41 42 42 44 44 43 42 43 44 44 42 41 39 38 38 36 33 31 30 31 32 33 34 35 36 36 37 36 34 32 30 28 26 26 25 23 23 22
39 39 38 39 43 45 44 45 45 44 44 44 44 42 40 39 38 39 39 38 35 33 32 32 31 31 33 36 37 36 36 36 35 34 32 30 29 28 26 25 24 24
35 37 39 40 43 46 47 46 46 46 45 44 44 41 39 39 39 39 40 39 37 35 32 30 29 30 33 36 36 36 34 34 34 34 33 32 31 30 28 26 25 25
33 37 40 42 43 46 49 49 49 48 46 45 44 41 39 38 38 37 37 37 37 34 30 28 28 29 32 35 35 35 33 32 32 32 32 32 32 31 30 28 27 26
34 37 41 45 46 46 49 51 51 50 48 47 44 40 38 38 37 36 36 37 36 33 28 27 28 28 30 33 34 34 32 31 29 28 29 31 31 32 31 30 29 28
39 39 41 45 47 48 48 49 51 51 50 48 44 41 40 39 37 37 38 39 37 33 30 29 29 28 28 29 31 32 31 30 28 27 27 29 30 31 31 32 31 30
43 43 43 44 46 49 49 48 49 50 51 49 45 42 41 39 38 40 41 42 40 36 33 32 30 27 25 27 29 30 30 30 29 27 26 27 29 30 30 31 32 32
44 45 46 46 46 48 49 49 49 48 49 49 46 43 42 41 41 41 43 44 44 42 39 36 33 28 25 25 26 29 30 30 30 29 27 28 30 31 30 30 32 33
45 45 47 48 49 48 47 46 47 47 46 47 47 46 45 44 43 43 43 44 46 46 45 42 39 35 30 27 26 28 30 31 31 31 30 29 31 32 32 30 31 32
46 46 46 46 48 48 47 46 47 47 46 46 48 49 48 47 46 45 45 45 46 48 48 46 44 42 39 37 34 32 32 33 33 33 32 30 31 33 33 32 31 32
44 46 46 45 45 45 45 45 47 47 45 45 48 50 50 50 49 48 48 48 48 48 49 49 48 46 45 44 42 38 36 36 36 36 35 32 32 33 34 34 32 31
45 46 47 47 45 44 44 43 42 44 45 44 45 47 50 50 50 49 50 50 50 51 52 52 51 49 49 49 46 42 40 40 40 39 37 35 34 33 34 35 34 32